Year,Month,Day,Hour,Minute,Value (Times are PST for temperature in C)
2009,04,04,00,00,0.10
2009,04,04,00,01,0.10
2009,04,04,00,02,0.10
2009,04,04,00,03,0.10
2009,04,04,00,04,0.10
2009,04,04,00,05,0.10
2009,04,04,00,06,0.10
2009,04,04,00,07,0.10
2009,04,04,00,08,0.10
2009,04,04,00,09,0.10
2009,04,04,00,10,0.10
2009,04,04,00,11,0.00
2009,04,04,00,12,0.00
2009,04,04,00,13,0.00
2009,04,04,00,14,0.00
2009,04,04,00,15,0.00
2009,04,04,00,16,0.00
2009,04,04,00,17,0.00
2009,04,04,00,18,0.00
2009,04,04,00,19,0.00
2009,04,04,00,20,0.00
2009,04,04,00,21,0.00
2009,04,04,00,22,0.00
2009,04,04,00,23,0.00
2009,04,04,00,24,0.00
2009,04,04,00,25,0.00
2009,04,04,00,26,0.00
2009,04,04,00,27,0.00
2009,04,04,00,28,0.00
2009,04,04,00,29,0.00
2009,04,04,00,30,0.00
2009,04,04,00,31,0.00
2009,04,04,00,32,0.00
2009,04,04,00,33,0.00
2009,04,04,00,34,0.00
2009,04,04,00,35,0.00
2009,04,04,00,36,0.00
2009,04,04,00,37,0.00
2009,04,04,00,38,0.00
2009,04,04,00,39,0.00
2009,04,04,00,40,0.00
2009,04,04,00,41,-0.10
2009,04,04,00,42,-0.10
2009,04,04,00,43,-0.10
2009,04,04,00,44,-0.10
2009,04,04,00,45,-0.10
2009,04,04,00,46,-0.10
2009,04,04,00,47,-0.20
2009,04,04,00,48,-0.20
2009,04,04,00,49,-0.20
2009,04,04,00,50,-0.20
2009,04,04,00,51,-0.20
2009,04,04,00,52,-0.20
2009,04,04,00,53,-0.20
2009,04,04,00,54,-0.30
2009,04,04,00,55,-0.30
2009,04,04,00,56,-0.30
2009,04,04,00,57,-0.30
2009,04,04,00,58,-0.30
2009,04,04,00,59,-0.30
2009,04,04,01,00,-0.30
2009,04,04,01,01,-0.30
2009,04,04,01,02,-0.30
2009,04,04,01,03,-0.30
2009,04,04,01,04,-0.30
2009,04,04,01,05,-0.30
2009,04,04,01,06,-0.30
2009,04,04,01,07,-0.30
2009,04,04,01,08,-0.30
2009,04,04,01,09,-0.30
2009,04,04,01,10,-0.30
2009,04,04,01,11,-0.30
2009,04,04,01,12,-0.30
2009,04,04,01,13,-0.30
2009,04,04,01,14,-0.30
2009,04,04,01,15,-0.30
2009,04,04,01,16,-0.30
2009,04,04,01,17,-0.30
2009,04,04,01,18,-0.30
2009,04,04,01,19,-0.30
2009,04,04,01,20,-0.30
2009,04,04,01,21,-0.30
2009,04,04,01,22,-0.30
2009,04,04,01,23,-0.30
2009,04,04,01,24,-0.30
2009,04,04,01,25,-0.30
2009,04,04,01,26,-0.30
2009,04,04,01,27,-0.30
2009,04,04,01,28,-0.40
2009,04,04,01,29,-0.40
2009,04,04,01,30,-0.40
2009,04,04,01,31,-0.40
2009,04,04,01,32,-0.40
2009,04,04,01,33,-0.40
2009,04,04,01,34,-0.40
2009,04,04,01,35,-0.40
2009,04,04,01,36,-0.40
2009,04,04,01,37,-0.40
2009,04,04,01,38,-0.40
2009,04,04,01,39,-0.40
2009,04,04,01,40,-0.40
2009,04,04,01,41,-0.40
2009,04,04,01,42,-0.40
2009,04,04,01,43,-0.50
2009,04,04,01,44,-0.50
2009,04,04,01,45,-0.50
2009,04,04,01,46,-0.50
2009,04,04,01,47,-0.50
2009,04,04,01,48,-0.50
2009,04,04,01,49,-0.50
2009,04,04,01,50,-0.50
2009,04,04,01,51,-0.50
2009,04,04,01,52,-0.50
2009,04,04,01,53,-0.50
2009,04,04,01,54,-0.50
2009,04,04,01,55,-0.40
2009,04,04,01,56,-0.40
2009,04,04,01,57,-0.40
2009,04,04,01,58,-0.40
2009,04,04,01,59,-0.40
2009,04,04,02,00,-0.40
2009,04,04,02,01,-0.40
2009,04,04,02,02,-0.40
2009,04,04,02,03,-0.40
2009,04,04,02,04,-0.40
2009,04,04,02,05,-0.40
2009,04,04,02,06,-0.40
2009,04,04,02,07,-0.40
2009,04,04,02,08,-0.50
2009,04,04,02,09,-0.50
2009,04,04,02,10,-0.50
2009,04,04,02,11,-0.50
2009,04,04,02,12,-0.50
2009,04,04,02,13,-0.50
2009,04,04,02,14,-0.50
2009,04,04,02,15,-0.50
2009,04,04,02,16,-0.50
2009,04,04,02,17,-0.50
2009,04,04,02,18,-0.50
2009,04,04,02,19,-0.50
2009,04,04,02,20,-0.50
2009,04,04,02,21,-0.50
2009,04,04,02,22,-0.50
2009,04,04,02,23,-0.50
2009,04,04,02,24,-0.50
2009,04,04,02,25,-0.50
2009,04,04,02,26,-0.50
2009,04,04,02,27,-0.50
2009,04,04,02,28,-0.50
2009,04,04,02,29,-0.50
2009,04,04,02,30,-0.50
2009,04,04,02,31,-0.50
2009,04,04,02,32,-0.50
2009,04,04,02,33,-0.50
2009,04,04,02,34,-0.50
2009,04,04,02,35,-0.50
2009,04,04,02,36,-0.50
2009,04,04,02,37,-0.50
2009,04,04,02,38,-0.60
2009,04,04,02,39,-0.60
2009,04,04,02,40,-0.60
2009,04,04,02,41,-0.60
2009,04,04,02,42,-0.60
2009,04,04,02,43,-0.60
2009,04,04,02,44,-0.60
2009,04,04,02,45,-0.60
2009,04,04,02,46,-0.60
2009,04,04,02,47,-0.60
2009,04,04,02,48,-0.60
2009,04,04,02,49,-0.60
2009,04,04,02,50,-0.60
2009,04,04,02,51,-0.70
2009,04,04,02,52,-0.70
2009,04,04,02,53,-0.70
2009,04,04,02,54,-0.70
2009,04,04,02,55,-0.70
2009,04,04,02,56,-0.70
2009,04,04,02,57,-0.70
2009,04,04,02,58,-0.70
2009,04,04,02,59,-0.70
2009,04,04,03,00,-0.70
2009,04,04,03,01,-0.70
2009,04,04,03,02,-0.70
2009,04,04,03,03,-0.70
2009,04,04,03,04,-0.70
2009,04,04,03,05,-0.70
2009,04,04,03,06,-0.80
2009,04,04,03,07,-0.80
2009,04,04,03,08,-0.80
2009,04,04,03,09,-0.80
2009,04,04,03,10,-0.80
2009,04,04,03,11,-0.80
2009,04,04,03,12,-0.80
2009,04,04,03,13,-0.80
2009,04,04,03,14,-0.80
2009,04,04,03,15,-0.80
2009,04,04,03,16,-0.80
2009,04,04,03,17,-0.80
2009,04,04,03,18,-0.80
2009,04,04,03,19,-0.80
2009,04,04,03,20,-0.80
2009,04,04,03,21,-0.80
2009,04,04,03,22,-0.80
2009,04,04,03,23,-0.70
2009,04,04,03,24,-0.70
2009,04,04,03,25,-0.70
2009,04,04,03,26,-0.70
2009,04,04,03,27,-0.70
2009,04,04,03,28,-0.70
2009,04,04,03,29,-0.70
2009,04,04,03,30,-0.70
2009,04,04,03,31,-0.70
2009,04,04,03,32,-0.70
2009,04,04,03,33,-0.70
2009,04,04,03,34,-0.80
2009,04,04,03,35,-0.80
2009,04,04,03,36,-0.80
2009,04,04,03,37,-0.80
2009,04,04,03,38,-0.80
2009,04,04,03,39,-0.80
2009,04,04,03,40,-0.80
2009,04,04,03,41,-0.80
2009,04,04,03,42,-0.80
2009,04,04,03,43,-0.80
2009,04,04,03,44,-0.80
2009,04,04,03,45,-0.80
2009,04,04,03,46,-0.80
2009,04,04,03,47,-0.80
2009,04,04,03,48,-0.80
2009,04,04,03,49,-0.80
2009,04,04,03,50,-0.80
2009,04,04,03,51,-0.80
2009,04,04,03,52,-0.80
2009,04,04,03,53,-0.80
2009,04,04,03,54,-0.80
2009,04,04,03,55,-0.80
2009,04,04,03,56,-0.80
2009,04,04,03,57,-0.80
2009,04,04,03,58,-0.80
2009,04,04,03,59,-0.80
2009,04,04,04,00,-0.80
2009,04,04,04,01,-0.80
2009,04,04,04,02,-0.80
2009,04,04,04,03,-0.80
2009,04,04,04,04,-0.80
2009,04,04,04,05,-0.80
2009,04,04,04,06,-0.80
2009,04,04,04,07,-0.80
2009,04,04,04,08,-0.80
2009,04,04,04,09,-0.80
2009,04,04,04,10,-0.80
2009,04,04,04,11,-0.80
2009,04,04,04,12,-0.80
2009,04,04,04,13,-0.80
2009,04,04,04,14,-0.80
2009,04,04,04,15,-0.80
2009,04,04,04,16,-0.80
2009,04,04,04,17,-0.80
2009,04,04,04,18,-0.80
2009,04,04,04,19,-0.80
2009,04,04,04,20,-0.80
2009,04,04,04,21,-0.80
2009,04,04,04,22,-0.80
2009,04,04,04,23,-0.80
2009,04,04,04,24,-0.80
2009,04,04,04,25,-0.80
2009,04,04,04,26,-0.80
2009,04,04,04,27,-0.80
2009,04,04,04,28,-0.80
2009,04,04,04,29,-0.80
2009,04,04,04,30,-0.80
2009,04,04,04,31,-0.80
2009,04,04,04,32,-0.80
2009,04,04,04,33,-0.80
2009,04,04,04,34,-0.80
2009,04,04,04,35,-0.80
2009,04,04,04,36,-0.80
2009,04,04,04,37,-0.80
2009,04,04,04,38,-0.80
2009,04,04,04,39,-0.80
2009,04,04,04,40,-0.80
2009,04,04,04,41,-0.80
2009,04,04,04,42,-0.90
2009,04,04,04,43,-0.90
2009,04,04,04,44,-0.90
2009,04,04,04,45,-0.90
2009,04,04,04,46,-0.90
2009,04,04,04,47,-0.90
2009,04,04,04,48,-0.90
2009,04,04,04,49,-0.90
2009,04,04,04,50,-0.90
2009,04,04,04,51,-0.90
2009,04,04,04,52,-0.90
2009,04,04,04,53,-1.00
2009,04,04,04,54,-1.00
2009,04,04,04,55,-1.00
2009,04,04,04,56,-1.00
2009,04,04,04,57,-1.00
2009,04,04,04,58,-1.00
2009,04,04,04,59,-1.00
2009,04,04,05,00,-1.00
2009,04,04,05,01,-1.00
2009,04,04,05,02,-1.10
2009,04,04,05,03,-1.10
2009,04,04,05,04,-1.10
2009,04,04,05,05,-1.10
2009,04,04,05,06,-1.10
2009,04,04,05,07,-1.10
2009,04,04,05,08,-1.10
2009,04,04,05,09,-1.10
2009,04,04,05,10,-1.10
2009,04,04,05,11,-1.10
2009,04,04,05,12,-1.10
2009,04,04,05,13,-1.10
2009,04,04,05,14,-1.10
2009,04,04,05,15,-1.10
2009,04,04,05,16,-1.10
2009,04,04,05,17,-1.10
2009,04,04,05,18,-1.10
2009,04,04,05,19,-1.10
2009,04,04,05,20,-1.10
2009,04,04,05,21,-1.10
2009,04,04,05,22,-1.10
2009,04,04,05,23,-1.10
2009,04,04,05,24,-1.10
2009,04,04,05,25,-1.10
2009,04,04,05,26,-1.10
2009,04,04,05,27,-1.10
2009,04,04,05,28,-1.10
2009,04,04,05,29,-1.10
2009,04,04,05,30,-1.10
2009,04,04,05,31,-1.10
2009,04,04,05,32,-1.10
2009,04,04,05,33,-1.10
2009,04,04,05,34,-1.10
2009,04,04,05,35,-1.10
2009,04,04,05,36,-1.10
2009,04,04,05,37,-1.10
2009,04,04,05,38,-1.10
2009,04,04,05,39,-1.10
2009,04,04,05,40,-1.10
2009,04,04,05,41,-1.10
2009,04,04,05,42,-1.10
2009,04,04,05,43,-1.10
2009,04,04,05,44,-1.10
2009,04,04,05,45,-1.10
2009,04,04,05,46,-1.10
2009,04,04,05,47,-1.20
2009,04,04,05,48,-1.20
2009,04,04,05,49,-1.20
2009,04,04,05,50,-1.20
2009,04,04,05,51,-1.20
2009,04,04,05,52,-1.20
2009,04,04,05,53,-1.20
2009,04,04,05,54,-1.20
2009,04,04,05,55,-1.20
2009,04,04,05,56,-1.20
2009,04,04,05,57,-1.20
2009,04,04,05,58,-1.20
2009,04,04,05,59,-1.20
2009,04,04,06,00,-1.30
2009,04,04,06,01,-1.20
2009,04,04,06,02,-1.20
2009,04,04,06,03,-1.20
2009,04,04,06,04,-1.20
2009,04,04,06,05,-1.20
2009,04,04,06,06,-1.20
2009,04,04,06,07,-1.20
2009,04,04,06,08,-1.30
2009,04,04,06,09,-1.20
2009,04,04,06,10,-1.20
2009,04,04,06,11,-1.20
2009,04,04,06,12,-1.20
2009,04,04,06,13,-1.20
2009,04,04,06,14,-1.20
2009,04,04,06,15,-1.20
2009,04,04,06,16,-1.20
2009,04,04,06,17,-1.20
2009,04,04,06,18,-1.20
2009,04,04,06,19,-1.20
2009,04,04,06,20,-1.20
2009,04,04,06,21,-1.20
2009,04,04,06,22,-1.20
2009,04,04,06,23,-1.30
2009,04,04,06,24,-1.30
2009,04,04,06,25,-1.30
2009,04,04,06,26,-1.30
2009,04,04,06,27,-1.30
2009,04,04,06,28,-1.30
2009,04,04,06,29,-1.30
2009,04,04,06,30,-1.30
2009,04,04,06,31,-1.30
2009,04,04,06,32,-1.30
2009,04,04,06,33,-1.30
2009,04,04,06,34,-1.30
2009,04,04,06,35,-1.30
2009,04,04,06,36,-1.30
2009,04,04,06,37,-1.40
2009,04,04,06,38,-1.40
2009,04,04,06,39,-1.40
2009,04,04,06,40,-1.40
2009,04,04,06,41,-1.40
2009,04,04,06,42,-1.40
2009,04,04,06,43,-1.40
2009,04,04,06,44,-1.40
2009,04,04,06,45,-1.40
2009,04,04,06,46,-1.40
2009,04,04,06,47,-1.40
2009,04,04,06,48,-1.40
2009,04,04,06,49,-1.40
2009,04,04,06,50,-1.40
2009,04,04,06,51,-1.30
2009,04,04,06,52,-1.30
2009,04,04,06,53,-1.30
2009,04,04,06,54,-1.30
2009,04,04,06,55,-1.30
2009,04,04,06,56,-1.30
2009,04,04,06,57,-1.30
2009,04,04,06,58,-1.30
2009,04,04,06,59,-1.30
2009,04,04,07,00,-1.30
2009,04,04,07,01,-1.30
2009,04,04,07,02,-1.30
2009,04,04,07,03,-1.30
2009,04,04,07,04,-1.30
2009,04,04,07,05,-1.30
2009,04,04,07,06,-1.30
2009,04,04,07,07,-1.30
2009,04,04,07,08,-1.30
2009,04,04,07,09,-1.30
2009,04,04,07,10,-1.30
2009,04,04,07,11,-1.30
2009,04,04,07,12,-1.30
2009,04,04,07,13,-1.30
2009,04,04,07,14,-1.30
2009,04,04,07,15,-1.30
2009,04,04,07,16,-1.30
2009,04,04,07,17,-1.30
2009,04,04,07,18,-1.30
2009,04,04,07,19,-1.30
2009,04,04,07,20,-1.30
2009,04,04,07,21,-1.30
2009,04,04,07,22,-1.30
2009,04,04,07,23,-1.30
2009,04,04,07,24,-1.30
2009,04,04,07,25,-1.30
2009,04,04,07,26,-1.30
2009,04,04,07,27,-1.30
2009,04,04,07,28,-1.30
2009,04,04,07,29,-1.30
2009,04,04,07,30,-1.30
2009,04,04,07,31,-1.30
2009,04,04,07,32,-1.30
2009,04,04,07,33,-1.30
2009,04,04,07,34,-1.20
2009,04,04,07,35,-1.20
2009,04,04,07,36,-1.20
2009,04,04,07,37,-1.20
2009,04,04,07,38,-1.20
2009,04,04,07,39,-1.20
2009,04,04,07,40,-1.10
2009,04,04,07,41,-1.10
2009,04,04,07,42,-1.10
2009,04,04,07,43,-1.10
2009,04,04,07,44,-1.10
2009,04,04,07,45,-1.10
2009,04,04,07,46,-1.10
2009,04,04,07,47,-1.10
2009,04,04,07,48,-1.10
2009,04,04,07,49,-1.10
2009,04,04,07,50,-1.10
2009,04,04,07,51,-1.10
2009,04,04,07,52,-1.10
2009,04,04,07,53,-1.10
2009,04,04,07,54,-1.10
2009,04,04,07,55,-1.00
2009,04,04,07,56,-1.10
2009,04,04,07,57,-1.00
2009,04,04,07,58,-1.00
2009,04,04,07,59,-1.00
2009,04,04,08,00,-1.00
2009,04,04,08,01,-1.00
2009,04,04,08,02,-1.00
2009,04,04,08,03,-0.90
2009,04,04,08,04,-0.90
2009,04,04,08,05,-0.90
2009,04,04,08,06,-0.90
2009,04,04,08,07,-0.90
2009,04,04,08,08,-0.90
2009,04,04,08,09,-0.90
2009,04,04,08,10,-0.90
2009,04,04,08,11,-0.90
2009,04,04,08,12,-0.90
2009,04,04,08,13,-0.90
2009,04,04,08,14,-0.90
2009,04,04,08,15,-0.80
2009,04,04,08,16,-0.80
2009,04,04,08,17,-0.80
2009,04,04,08,18,-0.80
2009,04,04,08,19,-0.80
2009,04,04,08,20,-0.70
2009,04,04,08,21,-0.60
2009,04,04,08,22,-0.50
2009,04,04,08,23,-0.40
2009,04,04,08,24,-0.40
2009,04,04,08,25,-0.30
2009,04,04,08,26,-0.30
2009,04,04,08,27,-0.30
2009,04,04,08,28,-0.30
2009,04,04,08,29,-0.30
2009,04,04,08,30,-0.30
2009,04,04,08,31,-0.20
2009,04,04,08,32,-0.20
2009,04,04,08,33,-0.20
2009,04,04,08,34,-0.20
2009,04,04,08,35,-0.20
2009,04,04,08,36,-0.20
2009,04,04,08,37,-0.20
2009,04,04,08,38,-0.20
2009,04,04,08,39,-0.20
2009,04,04,08,40,-0.20
2009,04,04,08,41,-0.20
2009,04,04,08,42,-0.20
2009,04,04,08,43,-0.20
2009,04,04,08,44,-0.20
2009,04,04,08,45,-0.20
2009,04,04,08,46,-0.20
2009,04,04,08,47,-0.20
2009,04,04,08,48,-0.20
2009,04,04,08,49,-0.20
2009,04,04,08,50,-0.20
2009,04,04,08,51,-0.10
2009,04,04,08,52,-0.10
2009,04,04,08,53,-0.10
2009,04,04,08,54,-0.10
2009,04,04,08,55,-0.10
2009,04,04,08,56,-0.10
2009,04,04,08,57,-0.10
2009,04,04,08,58,-0.10
2009,04,04,08,59,0.00
2009,04,04,09,00,0.00
2009,04,04,09,01,0.00
2009,04,04,09,02,0.10
2009,04,04,09,03,0.10
2009,04,04,09,04,0.10
2009,04,04,09,05,0.10
2009,04,04,09,06,0.20
2009,04,04,09,07,0.30
2009,04,04,09,08,0.30
2009,04,04,09,09,0.40
2009,04,04,09,10,0.40
2009,04,04,09,11,0.40
2009,04,04,09,12,0.50
2009,04,04,09,13,0.50
2009,04,04,09,14,0.60
2009,04,04,09,15,0.60
2009,04,04,09,16,0.60
2009,04,04,09,17,0.60
2009,04,04,09,18,0.60
2009,04,04,09,19,0.70
2009,04,04,09,20,0.70
2009,04,04,09,21,0.70
2009,04,04,09,22,0.70
2009,04,04,09,23,0.70
2009,04,04,09,24,0.80
2009,04,04,09,25,0.80
2009,04,04,09,26,0.80
2009,04,04,09,27,0.90
2009,04,04,09,28,0.90
2009,04,04,09,29,0.90
2009,04,04,09,30,0.90
2009,04,04,09,31,1.00
2009,04,04,09,32,1.00
2009,04,04,09,33,1.00
2009,04,04,09,34,1.10
2009,04,04,09,35,1.20
2009,04,04,09,36,1.20
2009,04,04,09,37,1.20
2009,04,04,09,38,1.30
2009,04,04,09,39,1.30
2009,04,04,09,40,1.30
2009,04,04,09,41,1.30
2009,04,04,09,42,1.30
2009,04,04,09,43,1.30
2009,04,04,09,44,1.40
2009,04,04,09,45,1.40
2009,04,04,09,46,1.40
2009,04,04,09,47,1.50
2009,04,04,09,48,1.50
2009,04,04,09,49,1.60
2009,04,04,09,50,1.60
2009,04,04,09,51,1.70
2009,04,04,09,52,1.70
2009,04,04,09,53,1.70
2009,04,04,09,54,1.80
2009,04,04,09,55,1.80
2009,04,04,09,56,1.80
2009,04,04,09,57,1.90
2009,04,04,09,58,1.90
2009,04,04,09,59,2.00
2009,04,04,10,00,2.00
2009,04,04,10,01,2.10
2009,04,04,10,02,2.10
2009,04,04,10,03,2.20
2009,04,04,10,04,2.20
2009,04,04,10,05,2.20
2009,04,04,10,06,2.30
2009,04,04,10,07,2.30
2009,04,04,10,08,2.40
2009,04,04,10,09,2.40
2009,04,04,10,10,2.40
2009,04,04,10,11,2.50
2009,04,04,10,12,2.50
2009,04,04,10,13,2.60
2009,04,04,10,14,2.60
2009,04,04,10,15,2.70
2009,04,04,10,16,2.70
2009,04,04,10,17,2.70
2009,04,04,10,18,2.80
2009,04,04,10,19,2.80
2009,04,04,10,20,2.90
2009,04,04,10,21,2.90
2009,04,04,10,22,3.00
2009,04,04,10,23,3.10
2009,04,04,10,24,3.10
2009,04,04,10,25,3.20
2009,04,04,10,26,3.20
2009,04,04,10,27,3.30
2009,04,04,10,28,3.30
2009,04,04,10,29,3.40
2009,04,04,10,30,3.50
2009,04,04,10,31,3.50
2009,04,04,10,32,3.60
2009,04,04,10,33,3.70
2009,04,04,10,34,3.70
2009,04,04,10,35,3.80
2009,04,04,10,36,3.80
2009,04,04,10,37,3.90
2009,04,04,10,38,4.00
2009,04,04,10,39,4.10
2009,04,04,10,40,4.20
2009,04,04,10,41,4.20
2009,04,04,10,42,4.30
2009,04,04,10,43,4.30
2009,04,04,10,44,4.40
2009,04,04,10,45,4.50
2009,04,04,10,46,4.50
2009,04,04,10,47,4.60
2009,04,04,10,48,4.70
2009,04,04,10,49,4.80
2009,04,04,10,50,4.90
2009,04,04,10,51,4.90
2009,04,04,10,52,5.00
2009,04,04,10,53,5.10
2009,04,04,10,54,5.10
2009,04,04,10,55,5.20
2009,04,04,10,56,5.30
2009,04,04,10,57,5.40
2009,04,04,10,58,5.40
2009,04,04,10,59,5.50
2009,04,04,11,00,5.60
2009,04,04,11,01,5.70
2009,04,04,11,02,5.70
2009,04,04,11,03,5.80
2009,04,04,11,04,5.90
2009,04,04,11,05,5.90
2009,04,04,11,06,6.00
2009,04,04,11,07,6.10
2009,04,04,11,08,6.10
2009,04,04,11,09,6.20
2009,04,04,11,10,6.20
2009,04,04,11,11,6.30
2009,04,04,11,12,6.30
2009,04,04,11,13,6.40
2009,04,04,11,14,6.40
2009,04,04,11,15,6.50
2009,04,04,11,16,6.60
2009,04,04,11,17,6.60
2009,04,04,11,18,6.70
2009,04,04,11,19,6.80
2009,04,04,11,20,6.80
2009,04,04,11,21,6.90
2009,04,04,11,22,6.90
2009,04,04,11,23,7.00
2009,04,04,11,24,7.10
2009,04,04,11,25,7.20
2009,04,04,11,26,7.20
2009,04,04,11,27,7.20
2009,04,04,11,28,7.30
2009,04,04,11,29,7.30
2009,04,04,11,30,7.40
2009,04,04,11,31,7.40
2009,04,04,11,32,7.50
2009,04,04,11,33,7.50
2009,04,04,11,34,7.50
2009,04,04,11,35,7.60
2009,04,04,11,36,7.60
2009,04,04,11,37,7.70
2009,04,04,11,38,7.70
2009,04,04,11,39,7.70
2009,04,04,11,40,7.70
2009,04,04,11,41,7.70
2009,04,04,11,42,7.80
2009,04,04,11,43,7.80
2009,04,04,11,44,7.80
2009,04,04,11,45,7.80
2009,04,04,11,46,7.90
2009,04,04,11,47,7.90
2009,04,04,11,48,7.90
2009,04,04,11,49,8.00
2009,04,04,11,50,8.00
2009,04,04,11,51,8.10
2009,04,04,11,52,8.10
2009,04,04,11,53,8.20
2009,04,04,11,54,8.20
2009,04,04,11,55,8.20
2009,04,04,11,56,8.30
2009,04,04,11,57,8.30
2009,04,04,11,58,8.30
2009,04,04,11,59,8.40
2009,04,04,12,00,8.40
2009,04,04,12,01,8.40
2009,04,04,12,02,8.50
2009,04,04,12,03,8.50
2009,04,04,12,04,8.60
2009,04,04,12,05,8.60
2009,04,04,12,06,8.70
2009,04,04,12,07,8.70
2009,04,04,12,08,8.70
2009,04,04,12,09,8.80
2009,04,04,12,10,8.80
2009,04,04,12,11,8.80
2009,04,04,12,12,8.90
2009,04,04,12,13,8.90
2009,04,04,12,14,8.90
2009,04,04,12,15,8.90
2009,04,04,12,16,9.00
2009,04,04,12,17,9.00
2009,04,04,12,18,9.10
2009,04,04,12,19,9.10
2009,04,04,12,20,9.20
2009,04,04,12,21,9.20
2009,04,04,12,22,9.20
2009,04,04,12,23,9.30
2009,04,04,12,24,9.30
2009,04,04,12,25,9.30
2009,04,04,12,26,9.30
2009,04,04,12,27,9.30
2009,04,04,12,28,9.30
2009,04,04,12,29,9.30
2009,04,04,12,30,9.30
2009,04,04,12,31,9.30
2009,04,04,12,32,9.30
2009,04,04,12,33,9.30
2009,04,04,12,34,9.30
2009,04,04,12,35,9.30
2009,04,04,12,36,9.30
2009,04,04,12,37,9.30
2009,04,04,12,38,9.30
2009,04,04,12,39,9.40
2009,04,04,12,40,9.40
2009,04,04,12,41,9.40
2009,04,04,12,42,9.50
2009,04,04,12,43,9.50
2009,04,04,12,44,9.50
2009,04,04,12,45,9.50
2009,04,04,12,46,9.60
2009,04,04,12,47,9.60
2009,04,04,12,48,9.60
2009,04,04,12,49,9.60
2009,04,04,12,50,9.70
2009,04,04,12,51,9.70
2009,04,04,12,52,9.70
2009,04,04,12,53,9.70
2009,04,04,12,54,9.70
2009,04,04,12,55,9.70
2009,04,04,12,56,9.70
2009,04,04,12,57,9.70
2009,04,04,12,58,9.70
2009,04,04,12,59,9.60
2009,04,04,13,00,9.60
2009,04,04,13,01,9.60
2009,04,04,13,02,9.60
2009,04,04,13,03,9.60
2009,04,04,13,04,9.60
2009,04,04,13,05,9.60
2009,04,04,13,06,9.60
2009,04,04,13,07,9.60
2009,04,04,13,08,9.60
2009,04,04,13,09,9.60
2009,04,04,13,10,9.60
2009,04,04,13,11,9.60
2009,04,04,13,12,9.60
2009,04,04,13,13,9.60
2009,04,04,13,14,9.60
2009,04,04,13,15,9.60
2009,04,04,13,16,9.60
2009,04,04,13,17,9.60
2009,04,04,13,18,9.60
2009,04,04,13,19,9.60
2009,04,04,13,20,9.60
2009,04,04,13,21,9.60
2009,04,04,13,22,9.60
2009,04,04,13,23,9.60
2009,04,04,13,24,9.70
2009,04,04,13,25,9.70
2009,04,04,13,26,9.80
2009,04,04,13,27,9.80
2009,04,04,13,28,9.90
2009,04,04,13,29,10.00
2009,04,04,13,30,10.10
2009,04,04,13,31,10.10
2009,04,04,13,32,10.20
2009,04,04,13,33,10.20
2009,04,04,13,34,10.30
2009,04,04,13,35,10.30
2009,04,04,13,36,10.30
2009,04,04,13,37,10.30
2009,04,04,13,38,10.30
2009,04,04,13,39,10.30
2009,04,04,13,40,10.30
2009,04,04,13,41,10.40
2009,04,04,13,42,10.40
2009,04,04,13,43,10.30
2009,04,04,13,44,10.30
2009,04,04,13,45,10.40
2009,04,04,13,46,10.40
2009,04,04,13,47,10.40
2009,04,04,13,48,10.40
2009,04,04,13,49,10.40
2009,04,04,13,50,10.50
2009,04,04,13,51,10.50
2009,04,04,13,52,10.50
2009,04,04,13,53,10.50
2009,04,04,13,54,10.50
2009,04,04,13,55,10.50
2009,04,04,13,56,10.50
2009,04,04,13,57,10.60
2009,04,04,13,58,10.60
2009,04,04,13,59,10.70
2009,04,04,14,00,10.70
2009,04,04,14,01,10.70
2009,04,04,14,02,10.70
2009,04,04,14,03,10.70
2009,04,04,14,04,10.70
2009,04,04,14,05,10.80
2009,04,04,14,06,10.80
2009,04,04,14,07,10.80
2009,04,04,14,08,10.90
2009,04,04,14,09,10.90
2009,04,04,14,10,11.00
2009,04,04,14,11,11.00
2009,04,04,14,12,11.00
2009,04,04,14,13,11.10
2009,04,04,14,14,11.10
2009,04,04,14,15,11.10
2009,04,04,14,16,11.20
2009,04,04,14,17,11.20
2009,04,04,14,18,11.30
2009,04,04,14,19,11.30
2009,04,04,14,20,11.40
2009,04,04,14,21,11.40
2009,04,04,14,22,11.40
2009,04,04,14,23,11.40
2009,04,04,14,24,11.40
2009,04,04,14,25,11.30
2009,04,04,14,26,11.30
2009,04,04,14,27,11.30
2009,04,04,14,28,11.20
2009,04,04,14,29,11.20
2009,04,04,14,30,11.10
2009,04,04,14,31,11.10
2009,04,04,14,32,11.10
2009,04,04,14,33,11.10
2009,04,04,14,34,11.10
2009,04,04,14,35,11.10
2009,04,04,14,36,11.10
2009,04,04,14,37,11.10
2009,04,04,14,38,11.00
2009,04,04,14,39,11.00
2009,04,04,14,40,11.00
2009,04,04,14,41,11.00
2009,04,04,14,42,11.00
2009,04,04,14,43,11.00
2009,04,04,14,44,11.00
2009,04,04,14,45,11.10
2009,04,04,14,46,11.10
2009,04,04,14,47,11.20
2009,04,04,14,48,11.20
2009,04,04,14,49,11.30
2009,04,04,14,50,11.40
2009,04,04,14,51,11.40
2009,04,04,14,52,11.40
2009,04,04,14,53,11.40
2009,04,04,14,54,11.50
2009,04,04,14,55,11.50
2009,04,04,14,56,11.60
2009,04,04,14,57,11.60
2009,04,04,14,58,11.70
2009,04,04,14,59,11.70
2009,04,04,15,00,11.80
2009,04,04,15,01,11.80
2009,04,04,15,02,11.70
2009,04,04,15,03,11.60
2009,04,04,15,04,11.60
2009,04,04,15,05,11.50
2009,04,04,15,06,11.50
2009,04,04,15,07,11.50
2009,04,04,15,08,11.50
2009,04,04,15,09,11.60
2009,04,04,15,10,11.60
2009,04,04,15,11,11.60
2009,04,04,15,12,11.70
2009,04,04,15,13,11.70
2009,04,04,15,14,11.80
2009,04,04,15,15,11.80
2009,04,04,15,16,11.80
2009,04,04,15,17,11.80
2009,04,04,15,18,11.90
2009,04,04,15,19,11.90
2009,04,04,15,20,11.90
2009,04,04,15,21,11.80
2009,04,04,15,22,11.80
2009,04,04,15,23,11.90
2009,04,04,15,24,11.90
2009,04,04,15,25,11.90
2009,04,04,15,26,12.00
2009,04,04,15,27,12.00
2009,04,04,15,28,12.00
2009,04,04,15,29,12.10
2009,04,04,15,30,12.10
2009,04,04,15,31,12.10
2009,04,04,15,32,12.10
2009,04,04,15,33,12.10
2009,04,04,15,34,12.20
2009,04,04,15,35,12.30
2009,04,04,15,36,12.30
2009,04,04,15,37,12.40
2009,04,04,15,38,12.40
2009,04,04,15,39,12.40
2009,04,04,15,40,12.40
2009,04,04,15,41,12.40
2009,04,04,15,42,12.40
2009,04,04,15,43,12.30
2009,04,04,15,44,12.30
2009,04,04,15,45,12.40
2009,04,04,15,46,12.40
2009,04,04,15,47,12.50
2009,04,04,15,48,12.60
2009,04,04,15,49,12.60
2009,04,04,15,50,12.60
2009,04,04,15,51,12.60
2009,04,04,15,52,12.60
2009,04,04,15,53,12.60
2009,04,04,15,54,12.50
2009,04,04,15,55,12.50
2009,04,04,15,56,12.50
2009,04,04,15,57,12.50
2009,04,04,15,58,12.40
2009,04,04,15,59,12.40
2009,04,04,16,00,12.40
2009,04,04,16,01,12.30
2009,04,04,16,02,12.30
2009,04,04,16,03,12.30
2009,04,04,16,04,12.30
2009,04,04,16,05,12.20
2009,04,04,16,06,12.20
2009,04,04,16,07,12.20
2009,04,04,16,08,12.20
2009,04,04,16,09,12.20
2009,04,04,16,10,12.20
2009,04,04,16,11,12.20
2009,04,04,16,12,12.30
2009,04,04,16,13,12.30
2009,04,04,16,14,12.30
2009,04,04,16,15,12.30
2009,04,04,16,16,12.30
2009,04,04,16,17,12.30
2009,04,04,16,18,12.30
2009,04,04,16,19,12.30
2009,04,04,16,20,12.30
2009,04,04,16,21,12.30
2009,04,04,16,22,12.20
2009,04,04,16,23,12.20
2009,04,04,16,24,12.10
2009,04,04,16,25,12.10
2009,04,04,16,26,12.10
2009,04,04,16,27,12.00
2009,04,04,16,28,11.90
2009,04,04,16,29,11.90
2009,04,04,16,30,11.80
2009,04,04,16,31,11.80
2009,04,04,16,32,11.80
2009,04,04,16,33,11.70
2009,04,04,16,34,11.70
2009,04,04,16,35,11.70
2009,04,04,16,36,11.70
2009,04,04,16,37,11.70
2009,04,04,16,38,11.60
2009,04,04,16,39,11.60
2009,04,04,16,40,11.60
2009,04,04,16,41,11.60
2009,04,04,16,42,11.60
2009,04,04,16,43,11.50
2009,04,04,16,44,11.40
2009,04,04,16,45,11.40
2009,04,04,16,46,11.30
2009,04,04,16,47,11.30
2009,04,04,16,48,11.20
2009,04,04,16,49,11.20
2009,04,04,16,50,11.20
2009,04,04,16,51,11.20
2009,04,04,16,52,11.20
2009,04,04,16,53,11.20
2009,04,04,16,54,11.20
2009,04,04,16,55,11.20
2009,04,04,16,56,11.20
2009,04,04,16,57,11.20
2009,04,04,16,58,11.20
2009,04,04,16,59,11.20
2009,04,04,17,00,11.20
2009,04,04,17,01,11.30
2009,04,04,17,02,11.20
2009,04,04,17,03,11.20
2009,04,04,17,04,11.20
2009,04,04,17,05,11.20
2009,04,04,17,06,11.20
2009,04,04,17,07,11.20
2009,04,04,17,08,11.20
2009,04,04,17,09,11.20
2009,04,04,17,10,11.20
2009,04,04,17,11,11.20
2009,04,04,17,12,11.20
2009,04,04,17,13,11.20
2009,04,04,17,14,11.20
2009,04,04,17,15,11.20
2009,04,04,17,16,11.20
2009,04,04,17,17,11.20
2009,04,04,17,18,11.20
2009,04,04,17,19,11.20
2009,04,04,17,20,11.20
2009,04,04,17,21,11.20
2009,04,04,17,22,11.10
2009,04,04,17,23,11.10
2009,04,04,17,24,11.10
2009,04,04,17,25,11.10
2009,04,04,17,26,11.10
2009,04,04,17,27,11.00
2009,04,04,17,28,11.00
2009,04,04,17,29,10.90
2009,04,04,17,30,10.90
2009,04,04,17,31,10.90
2009,04,04,17,32,10.90